Epoch 2006 Apr. 15.0 TT = JDT 2453840.5
T 2006 May 3.61402 TT MPCW
q 2.3396068 (2000.0) P Q
n 0.14866777 Peri. 31.38854 -0.81514725 +0.57905128
a 3.5290529 Node 184.09505 -0.56591345 -0.80173766
e 0.3370440 Incl. 12.38471 -0.12359989 -0.14804165
P 6.63
From 55 observations 2006 Mar. 26-2019 Apr. 3, mean residual 0".6.